Regional Weather Roundup
Issued by NWS

Current Version | Previous Version | Text Only | Print | Product List | Glossary On
Versions: 1 2 3 4 5 6 7 8 9 10 11 12 13 14 15 16 17 18 19 20 21 22 23 24 25 26 27
000
ASUS44 KBMX 280510
RWRAL

ALABAMA REGIONAL WEATHER ROUNDUP
NATIONAL WEATHER SERVICE BIRMINGHAM AL
1200 AM CDT SAT MAY 28 2022

NOTE: "FAIR" INDICATES FEW OR NO CLOUDS BELOW 12,000 FEET
WITH NO SIGNIFICANT WEATHER AND/OR OBSTRUCTIONS TO VISIBILITY.

THE REMARK "TC" DENOTES TEMPERATURE IN DEGREES CELSIUS.

ALZ001>011-014-016>018-020-280600-
NORTH ALABAMA

CITY           SKY/WX    TMP DP  RH WIND       PRES   REMARKS
MUSCLE SHOALS  MOCLDY    63  58  83 CALM      29.97S
HUNTSVILLE     MOCLDY    63  59  87 NW5       29.97S
DECATUR        MOCLDY    62  57  83 NW6       29.97S
HALEYVILLE     CLOUDY    61  59  93 W3        30.00F
GADSDEN        CLEAR     59  59 100 CALM      29.97R
$$

ALZ012-013-022-023-030>036-040>044-280600-
WEST CENTRAL ALABAMA

CITY           SKY/WX    TMP DP  RH WIND       PRES   REMARKS
TUSCALOOSA     CLEAR     64  61  90 CALM      29.96S
DEMOPOLIS      FAIR      63  63 100 CALM      29.96R
$$

ALZ015-024>026-033>036-041>044-280600-
CENTRAL ALABAMA

CITY           SKY/WX    TMP DP  RH WIND       PRES   REMARKS
BIRMINGHAM     PTCLDY    63  58  83 CALM      29.98S
MONTGOMERY     CLEAR     67  59  75 NW6       29.94S
SHELBY CO ARPT CLEAR     65  58  78 CALM      29.96S
MAXWELL AFB    CLEAR     67  58  73 N6        29.92R
GREENVILLE     FAIR      63  60  90 N3        29.93S
SELMA          FAIR      63  63 100 CALM      29.94S
PRATTVILLE     FAIR      65  59  80 CALM      29.94R
BESSEMER       FAIR      64  59  83 CALM      29.97S
TALLADEGA      FAIR     N/A N/A N/A CALM      29.97S
PELL CITY      CLEAR     59  57  94 CALM      29.97R
SYLACAUGA      CLOUDY    62  60  93 CALM      29.96S
$$

ALZ019-021-028-029-037-038-045>048-280600-
EAST CENTRAL ALABAMA

CITY           SKY/WX    TMP DP  RH WIND       PRES   REMARKS
ANNISTON       PTCLDY    63  59  87 CALM      29.96S
ALEXANDER CITY CLEAR     63  62  97 NW3       29.95S
AUBURN         CLEAR     64  59  83 NW6       29.95F
$$

ALZ051>064-280600-
SOUTHWEST ALABAMA

CITY           SKY/WX    TMP DP  RH WIND       PRES   REMARKS
MOBILE         CLEAR     66  59  78 N3        29.94S
BROOKLEY FIELD CLEAR     68  59  73 NW3       29.94S
EVERGREEN      CLEAR     63  61  93 CALM      29.94S FOG
$$

ALZ049-050-065>069-280600-
SOUTHEAST ALABAMA

CITY           SKY/WX    TMP DP  RH WIND       PRES   REMARKS
DOTHAN         CLEAR     70  64  81 NW6       29.95S
OZARK          CLEAR     66  66  99 CALM      29.91S
TROY           CLEAR     68  59  73 NW6       29.94S
EUFAULA        FAIR      69  60  73 NW5       29.92
$$



USA.gov is the U.S. government's official web portal to all federal, state and local government web resources and services.